Location: Castelbiague
(43.0361°N, 0.9246°E)
Time: 00:58:17
(UTC+00:00)

Cosmos 1844 - Visible Passes

Search period start: 24 October 2021 00:00
Search period end: 03 November 2021 00:00
Orbit: 821 x 869 km, 70.9° (Epoch: 23 October)

Date Brightness Start Highest point End Pass type
(mag) Time Alt. Az. Time Alt. Az. Time Alt. Az.
24 Oct 4.2 18:15:33 10° NNW 18:20:56 38° ENE 18:23:55 23° ESE visible
24 Oct 5.1 19:59:51 10° NW 20:04:59 34° WSW 20:05:52 32° WSW visible
25 Oct 4.3 18:01:33 10° N 18:06:55 37° ENE 18:11:17 14° ESE visible
25 Oct 5.1 19:45:49 10° NW 19:51:00 35° WSW 19:53:16 26° SSW visible
26 Oct 4.3 17:47:35 10° N 17:52:54 36° NE 17:58:07 10° ESE visible
26 Oct 5.1 19:31:47 10° NW 19:37:00 36° WSW 19:41:01 16° SSW visible
27 Oct 4.3 17:33:36 10° N 17:38:52 35° NE 17:44:04 10° ESE visible
27 Oct 5.1 19:17:45 10° NW 19:23:01 37° WSW 19:28:12 10° S visible
28 Oct 4.4 17:19:36 10° N 17:24:51 34° NE 17:30:00 10° ESE visible
28 Oct 5.0 19:03:44 10° NW 19:09:02 39° WSW 19:14:14 10° S visible
29 Oct 5.0 18:49:42 10° NW 18:55:02 40° WSW 19:00:17 10° S visible
30 Oct 5.0 18:35:40 10° NW 18:41:02 41° WSW 18:46:19 10° S visible
31 Oct 5.0 18:21:39 10° NW 18:27:03 43° WSW 18:32:21 10° S visible
01 Nov 5.0 18:07:37 10° NW 18:13:03 44° WSW 18:18:24 10° S visible
02 Nov 4.9 17:53:36 10° NW 17:59:03 45° WSW 18:04:26 10° S visible
